| time (UTC) | temp C | wind direction | speed KPH | gust KPH | rain 1hr cm | rain 24hr cm | rain mn cm | humidity % | barometer mb |
| 20260506103055 | 18 | 0 | 0.0 | 1.6 | 0.00 | 0.00 | 0.00 | 88 | 1013.9 |
| 20260506101541 | 18 | 0 | 0.0 | 1.6 | 0.00 | 0.00 | 0.00 | 88 | 1013.5 |
| 20260506100047 | 18 | 244 | 0.0 | 1.6 | 0.00 | 0.00 | 0.00 | 88 | 1013.6 |
| 20260506094539 | 18 | 0 | 0.0 | 1.6 | 0.00 | 0.00 | 0.00 | 87 | 1013.4 |
| 20260506093037 | 18 | 150 | 0.0 | 1.6 | 0.00 | 0.00 | 0.00 | 86 | 1013.0 |
| 20260506091545 | 18 | 0 | 0.0 | 6.4 | 0.00 | 0.00 | 0.00 | 85 | 1013.1 |
| 20260506090049 | 18 | 0 | 0.0 | 1.6 | 0.00 | 0.00 | 0.00 | 84 | 1013.2 |
| 20260506084558 | 18 | 0 | 0.0 | 1.6 | 0.00 | 0.00 | 0.00 | 83 | 1013.3 |
| 20260506083042 | 18 | 170 | 0.0 | 1.6 | 0.00 | 0.00 | 0.00 | 83 | 1013.3 |
| 20260506081540 | 17 | 0 | 0.0 | 1.6 | 0.00 | 0.00 | 0.00 | 82 | 1013.3 |
| 20260506073054 | 17 | 0 | 0.0 | 1.6 | 0.00 | 0.00 | 0.00 | 78 | 1013.4 |
| 20260506071541 | 18 | 0 | 0.0 | 0.0 | 0.00 | 0.00 | 0.00 | 76 | 1013.2 |
| 20260506061555 | 18 | 146 | 0.0 | 1.6 | 0.00 | 0.00 | 0.00 | 70 | 1014.2 |
| 20260506050105 | 18 | 0 | 0.0 | 0.0 | 0.00 | 0.00 | 0.00 | 64 | 1014.0 |
| 20260506044551 | 19 | 0 | 0.0 | 0.0 | 0.00 | 0.00 | 0.00 | 63 | 1013.6 |
| 20260506043043 | 19 | 0 | 0.0 | 0.0 | 0.00 | 0.00 | 0.00 | 62 | 1014.2 |
| 20260506041540 | 20 | 0 | 0.0 | 0.0 | 0.00 | 0.00 | 0.00 | 61 | 1014.2 |
| 20260506040100 | 20 | 0 | 0.0 | 1.6 | 0.00 | 0.00 | 0.00 | 60 | 1014.0 |
| 20260506034601 | 20 | 0 | 0.0 | 1.6 | 0.00 | 0.00 | 0.00 | 59 | 1014.1 |
| 20260506033047 | 20 | 0 | 0.0 | 1.6 | 0.00 | 0.00 | 0.00 | 58 | 1014.1 |
| 20260506031549 | 20 | 0 | 0.0 | 1.6 | 0.00 | 0.00 | 0.00 | 56 | 1014.0 |
| 20260506030055 | 20 | 0 | 0.0 | 1.6 | 0.00 | 0.00 | 0.00 | 55 | 1014.2 |
| 20260506024549 | 20 | 0 | 0.0 | 1.6 | 0.00 | 0.00 | 0.00 | 55 | 1014.4 |
| 20260506023050 | 20 | 0 | 0.0 | 0.0 | 0.00 | 0.00 | 0.00 | 55 | 1014.4 |
| 20260506021559 | 20 | 0 | 0.0 | 0.0 | 0.00 | 0.00 | 0.00 | 55 | 1014.2 |
| 20260506020044 | 20 | 0 | 0.0 | 0.0 | 0.00 | 0.00 | 0.00 | 54 | 1013.8 |
| 20260506014544 | 21 | 0 | 0.0 | 1.6 | 0.00 | 0.00 | 0.00 | 54 | 1014.0 |
| 20260506013053 | 21 | 0 | 0.0 | 1.6 | 0.00 | 0.00 | 0.00 | 54 | 1013.9 |
| 20260506011601 | 21 | 0 | 0.0 | 1.6 | 0.00 | 0.00 | 0.00 | 54 | 1013.9 |
| 20260506010039 | 21 | 0 | 0.0 | 1.6 | 0.00 | 0.00 | 0.00 | 53 | 1013.8 |
| 20260506004543 | 21 | 0 | 0.0 | 0.0 | 0.00 | 0.00 | 0.00 | 53 | 1013.9 |
| 20260506003043 | 22 | 0 | 0.0 | 0.0 | 0.00 | 0.00 | 0.00 | 51 | 1014.1 |
| 20260506001546 | 22 | 0 | 0.0 | 1.6 | 0.00 | 0.00 | 0.00 | 49 | 1014.1 |
| 20260506000046 | 22 | 0 | 0.0 | 0.0 | 0.00 | 0.00 | 0.00 | 48 | 1014.1 |
| 20260505234539 | 23 | 0 | 0.0 | 0.0 | 0.00 | 0.00 | 0.00 | 47 | 1013.8 |
| 20260505233045 | 23 | 0 | 0.0 | 1.6 | 0.00 | 0.00 | 0.00 | 46 | 1014.0 |
| 20260505231603 | 23 | 0 | 0.0 | 1.6 | 0.00 | 0.00 | 0.00 | 45 | 1014.1 |
| 20260505230050 | 25 | 0 | 0.0 | 3.2 | 0.00 | 0.00 | 0.00 | 43 | 1013.9 |
| 20260505224549 | 25 | 0 | 0.0 | 3.2 | 0.00 | 0.00 | 0.00 | 43 | 1013.7 |
| 20260505223042 | 25 | 0 | 0.0 | 3.2 | 0.00 | 0.00 | 0.00 | 43 | 1013.7 |
| 20260505221540 | 25 | 133 | 0.0 | 4.8 | 0.00 | 0.00 | 0.00 | 42 | 1013.8 |
| 20260505220041 | 25 | 0 | 1.6 | 8.0 | 0.00 | 0.00 | 0.00 | 42 | 1013.6 |
| 20260505214603 | 25 | 90 | 1.6 | 4.8 | 0.00 | 0.00 | 0.00 | 41 | 1013.4 |
| 20260505213043 | 25 | 227 | 0.0 | 4.8 | 0.00 | 0.00 | 0.00 | 43 | 1013.7 |
| 20260505211538 | 26 | 0 | 0.0 | 3.2 | 0.00 | 0.00 | 0.00 | 42 | 1013.9 |
| 20260505210039 | 26 | 262 | 0.0 | 3.2 | 0.00 | 0.00 | 0.00 | 41 | 1013.9 |
| 20260505204546 | 27 | 131 | 0.0 | 4.8 | 0.00 | 0.00 | 0.00 | 39 | 1014.1 |
| 20260505203046 | 27 | 245 | 1.6 | 8.0 | 0.00 | 0.00 | 0.00 | 40 | 1014.2 |
| 20260505201543 | 27 | 0 | 0.0 | 8.0 | 0.00 | 0.00 | 0.00 | 42 | 1014.4 |
| 20260505200055 | 27 | 354 | 0.0 | 3.2 | 0.00 | 0.00 | 0.00 | 40 | 1014.6 |
| 20260505194538 | 27 | 0 | 0.0 | 4.8 | 0.00 | 0.00 | 0.00 | 42 | 1015.0 |
| 20260505193038 | 27 | 255 | 0.0 | 4.8 | 0.00 | 0.00 | 0.00 | 43 | 1015.2 |
| 20260505191544 | 26 | 153 | 1.6 | 4.8 | 0.00 | 0.00 | 0.00 | 41 | 1015.2 |
| 20260505190043 | 26 | 239 | 1.6 | 4.8 | 0.00 | 0.00 | 0.00 | 41 | 1015.3 |
| 20260505184545 | 26 | 0 | 0.0 | 4.8 | 0.00 | 0.00 | 0.00 | 44 | 1015.3 |
| 20260505183054 | 26 | 0 | 0.0 | 3.2 | 0.00 | 0.00 | 0.00 | 47 | 1015.4 |
| 20260505181539 | 25 | 245 | 0.0 | 3.2 | 0.00 | 0.00 | 0.00 | 45 | 1015.5 |
| 20260505180046 | 25 | 0 | 0.0 | 4.8 | 0.00 | 0.00 | 0.00 | 49 | 1015.9 |
| 20260505174555 | 25 | 229 | 1.6 | 8.0 | 0.00 | 0.00 | 0.00 | 45 | 1016.0 |
| 20260505173044 | 25 | 0 | 0.0 | 4.8 | 0.00 | 0.00 | 0.00 | 47 | 1016.3 |
| 20260505171548 | 23 | 186 | 0.0 | 14.5 | 0.00 | 0.00 | 0.00 | 50 | 1016.2 |
| 20260505170044 | 23 | 237 | 0.0 | 4.8 | 0.00 | 0.00 | 0.00 | 50 | 1016.4 |
| 20260505164538 | 23 | 202 | 0.0 | 4.8 | 0.00 | 0.00 | 0.00 | 51 | 1016.4 |
| 20260505163038 | 23 | 0 | 0.0 | 6.4 | 0.00 | 0.00 | 0.00 | 51 | 1016.2 |
| 20260505161545 | 22 | 237 | 1.6 | 4.8 | 0.00 | 0.00 | 0.00 | 52 | 1016.3 |
| 20260505153040 | 21 | 186 | 1.6 | 4.8 | 0.00 | 0.00 | 0.00 | 60 | 1016.7 |
| 20260505151538 | 21 | 272 | 1.6 | 4.8 | 0.00 | 0.00 | 0.00 | 61 | 1016.7 |
| 20260505140106 | 16 | 0 | 0.0 | 1.6 | 0.00 | 0.00 | 0.00 | 78 | 1016.5 |
| 20260505124544 | 11 | 0 | 0.0 | 0.0 | 0.00 | 0.00 | 0.00 | 92 | 1016.3 |
| 20260505123048 | 10 | 0 | 0.0 | 0.0 | 0.00 | 0.00 | 0.00 | 92 | 1016.2 |
| 20260505121541 | 10 | 0 | 0.0 | 0.0 | 0.00 | 0.00 | 0.00 | 92 | 1015.9 |
| 20260505120046 | 9 | 0 | 0.0 | 0.0 | 0.00 | 0.00 | 0.00 | 92 | 1015.8 |
| 20260505114551 | 8 | 0 | 0.0 | 0.0 | 0.00 | 0.00 | 0.00 | 92 | 1015.8 |
| 20260505113041 | 8 | 0 | 0.0 | 0.0 | 0.00 | 0.00 | 0.00 | 92 | 1015.5 |
| 20260505111539 | 8 | 0 | 0.0 | 0.0 | 0.00 | 0.00 | 0.00 | 92 | 1015.4 |